Tracking 22459 objects as of 3-Mar-2021
HD Live streaming from Space Station
objects crossing your sky now

CZ-3B R/B


CZ-3B R/B is no longer on orbit


NORAD ID: 46611
Int'l Code: 2020-071B
Perigee: N/A
Apogee: N/A
Inclination: N/A
Period: N/A
Semi major axis: N/A
RCS: N/A
Launch date: October 11, 2020
Source: People's Republic of China (PRC)
Launch site: Xichang Space Center, China (XSC)
Decay date: 2021-01-02

Note: This is a ROCKET BODY
aabbcc
Your satellite tracking list
Your tracking list is empty




NASA's NSSDC Master Catalog

Two Line Element Set (TLE):
1 46611U 20071B   21002.86008222  .08968119 -71051-5  10000-3 0  9997
2 46611  28.2103 208.9501 0575680 280.8540 219.8450 15.25634295  2833
Source of the keplerian elements: AFSPC